This is the latest recevied weather packets stored in our database for station/object KB3HLL. If no packets are shown the sender has not sent any weather packets the latest 10 day(s).
| Time | Temp. | Humidity | Pressure | Rain* | Wind** | Luminosity | Snow |
|---|---|---|---|---|---|---|---|
| 1777823779 | 7.22° C | 55% | 1014.5 hPa | 0 mm | - | 446 W/m² | - |
| 1777823477 | 7.22° C | 58% | 1014.5 hPa | 0 mm | - | 628 W/m² | - |
| 1777823178 | 7.22° C | 58% | 1014.6 hPa | 0 mm | - | 309 W/m² | - |
| 1777822877 | 6.67° C | 57% | 1014.5 hPa | 0 mm | - | 831 W/m² | - |
| 1777822578 | 6.67° C | 57% | 1014.6 hPa | 0 mm | - | 290 W/m² | - |
| 1777822278 | 6.67° C | 59% | 1014.5 hPa | 0 mm | - | 1062 W/m² | - |
| 1777821978 | 6.67° C | 59% | 1014.6 hPa | 0 mm | - | 832 W/m² | - |
| 1777821679 | 6.11° C | 61% | 1014.6 hPa | 0 mm | - | 479 W/m² | - |
| 1777821378 | 6.11° C | 60% | 1014.5 hPa | 0 mm | - | 331 W/m² | - |
| 1777821077 | 6.11° C | 61% | 1014.6 hPa | 0 mm | - | 302 W/m² | - |
| 1777820778 | 6.67° C | 59% | 1014.6 hPa | 0 mm | - | 309 W/m² | - |
| 1777820478 | 6.11° C | 59% | 1014.5 hPa | 0 mm | - | 734 W/m² | - |
| 1777820178 | 5.56° C | 61% | 1014.6 hPa | 0 mm | - | 348 W/m² | - |
| 1777819877 | 5.56° C | 61% | 1014.6 hPa | 0 mm | - | 257 W/m² | - |
| 1777819578 | 5.56° C | 61% | 1014.6 hPa | 0 mm | - | 622 W/m² | - |
| 1777819279 | 5.56° C | 62% | 1014.8 hPa | 0 mm | - | 363 W/m² | - |
| 1777818978 | 5.56° C | 62% | 1014.8 hPa | 0 mm | - | 954 W/m² | - |
| 1777818678 | 5.56° C | 63% | 1014.8 hPa | 0 mm | - | 889 W/m² | - |
| 1777818377 | 5.56° C | 65% | 1014.8 hPa | 0 mm | - | 678 W/m² | - |
| 1777818078 | 5° C | 65% | 1014.9 hPa | 0 mm | - | 847 W/m² | - |
| 1777817780 | 5° C | 66% | 1014.8 hPa | 0 mm | - | 847 W/m² | - |
| 1777817477 | 4.44° C | 69% | 1014.9 hPa | 0 mm | - | 748 W/m² | - |
| 1777817178 | 5° C | 68% | 1014.9 hPa | 0 mm | - | 703 W/m² | - |
| 1777816878 | 4.44° C | 68% | 1014.9 hPa | 0 mm | - | 701 W/m² | - |
| 1777816578 | 4.44° C | 68% | 1014.9 hPa | 0 mm | - | 678 W/m² | - |
* Rain latest hour (hover to see other rain measurements)
** Current wind speed in m/s (hover to see current wind gust speed)